Time,TemperatureF,DewpointF,PressureIn,WindDirection,WindDirectionDegrees,WindSpeedMPH,WindSpeedGustMPH,Humidity,HourlyPrecipIn,Conditions,Clouds,dailyrainin,SoftwareType,DateUTC
2013-03-11 00:00:00,35.3,30.4,30.25,SE,144,0.0,2.0,82,0.00,,CLR,0.00,VWS V14.00,2013-03-11 04:00:00,
2013-03-11 00:05:00,35.3,30.4,30.25,SE,129,1.0,2.0,82,0.00,,CLR,0.00,VWS V14.00,2013-03-11 04:05:00,
2013-03-11 00:10:00,35.3,30.4,30.25,ESE,111,1.0,3.0,82,0.00,,CLR,0.00,VWS V14.00,2013-03-11 04:10:00,
2013-03-11 00:15:00,35.3,30.4,30.25,SE,126,1.0,2.0,82,0.00,,CLR,0.00,VWS V14.00,2013-03-11 04:15:00,
2013-03-11 00:20:00,35.3,30.4,30.25,SSE,148,3.0,3.0,82,0.00,,CLR,0.00,VWS V14.00,2013-03-11 04:20:00,
2013-03-11 00:25:00,35.3,30.7,30.25,SE,124,3.0,3.0,83,0.00,,CLR,0.00,VWS V14.00,2013-03-11 04:25:00,
2013-03-11 00:30:00,35.3,30.7,30.24,SE,139,1.0,5.0,83,0.00,,CLR,0.00,VWS V14.00,2013-03-11 04:30:00,
2013-03-11 00:35:00,35.2,30.6,30.24,East,82,0.0,7.0,83,0.00,,BKN011,0.00,VWS V14.00,2013-03-11 04:35:00,
2013-03-11 00:40:00,35.2,30.6,30.24,East,82,0.0,0.0,83,0.00,,BKN011,0.00,VWS V14.00,2013-03-11 04:40:00,
2013-03-11 00:45:00,35.2,30.6,30.24,SE,140,3.0,3.0,83,0.00,,BKN011,0.00,VWS V14.00,2013-03-11 04:45:00,
2013-03-11 00:50:00,35.2,30.6,30.24,SSE,151,1.0,3.0,83,0.00,,BKN011,0.00,VWS V14.00,2013-03-11 04:50:00,
2013-03-11 00:55:00,35.0,30.4,30.24,SE,140,2.0,7.0,83,0.00,,BKN011,0.00,VWS V14.00,2013-03-11 04:55:00,
2013-03-11 01:00:00,35.0,30.4,30.24,SE,126,0.0,0.0,83,0.00,,BKN011,0.00,VWS V14.00,2013-03-11 05:00:00,
2013-03-11 01:05:00,34.9,30.3,30.24,SSE,161,2.0,3.0,83,0.00,,BKN011,0.00,VWS V14.00,2013-03-11 05:05:00,
2013-03-11 01:10:00,34.9,30.6,30.24,SSE,151,0.0,1.0,84,0.00,,BKN011,0.00,VWS V14.00,2013-03-11 05:10:00,
2013-03-11 01:15:00,34.7,30.4,30.25,SE,141,0.0,0.0,84,0.00,,BKN011,0.00,VWS V14.00,2013-03-11 05:15:00,
2013-03-11 01:20:00,34.7,30.4,30.25,SE,141,0.0,0.0,84,0.00,,BKN011,0.00,VWS V14.00,2013-03-11 05:20:00,
2013-03-11 01:25:00,34.7,30.4,30.25,SE,127,4.0,4.0,84,0.00,,BKN011,0.00,VWS V14.00,2013-03-11 05:25:00,
2013-03-11 01:31:00,34.6,30.3,30.23,ESE,117,1.0,3.0,84,0.00,,BKN011,0.00,VWS V14.00,2013-03-11 05:31:00,
2013-03-11 01:36:00,34.6,30.6,30.23,ESE,114,1.0,3.0,85,0.00,,OVC009,0.00,VWS V14.00,2013-03-11 05:36:00,
2013-03-11 01:41:00,34.6,30.6,30.23,SSE,167,1.0,4.0,85,0.00,,OVC009,0.00,VWS V14.00,2013-03-11 05:41:00,
2013-03-11 01:46:00,34.6,30.6,30.23,SE,132,1.0,2.0,85,0.00,,OVC009,0.00,VWS V14.00,2013-03-11 05:46:00,
2013-03-11 01:51:00,34.7,30.7,30.23,East,101,4.0,6.0,85,0.00,,OVC009,0.00,VWS V14.00,2013-03-11 05:51:00,
2013-03-11 01:56:00,34.6,30.6,30.23,SE,143,1.0,6.0,85,0.00,,OVC009,0.00,VWS V14.00,2013-03-11 05:56:00,
2013-03-11 02:01:00,34.6,30.6,30.22,SSE,159,0.0,6.0,85,0.00,,OVC009,0.00,VWS V14.00,2013-03-11 06:01:00,
2013-03-11 02:06:00,34.6,30.6,30.22,ESE,105,0.0,2.0,85,0.00,,OVC009,0.00,VWS V14.00,2013-03-11 06:06:00,
2013-03-11 02:11:00,34.6,30.9,30.22,ESE,107,2.0,2.0,86,0.00,,OVC009,0.00,VWS V14.00,2013-03-11 06:11:00,
2013-03-11 02:16:00,34.6,30.9,30.21,ESE,122,0.0,3.0,86,0.00,,OVC009,0.00,VWS V14.00,2013-03-11 06:16:00,
2013-03-11 02:21:00,34.6,30.9,30.21,SSE,157,0.0,1.0,86,0.00,,OVC009,0.00,VWS V14.00,2013-03-11 06:21:00,
2013-03-11 02:26:00,34.6,30.9,30.21,ESE,116,0.0,1.0,86,0.00,,OVC009,0.00,VWS V14.00,2013-03-11 06:26:00,
2013-03-11 02:31:00,34.6,30.9,30.21,SSW,202,0.0,2.0,86,0.00,,OVC009,0.00,VWS V14.00,2013-03-11 06:31:00,
2013-03-11 02:36:00,34.4,30.6,30.21,East,90,2.0,2.0,86,0.00,,OVC009,0.00,VWS V14.00,2013-03-11 06:36:00,
2013-03-11 02:41:00,34.4,30.6,30.21,SSE,161,0.0,0.0,86,0.00,,OVC009,0.00,VWS V14.00,2013-03-11 06:41:00,
2013-03-11 02:46:00,34.4,30.6,30.22,SSE,161,0.0,2.0,86,0.00,,OVC009,0.00,VWS V14.00,2013-03-11 06:46:00,
2013-03-11 02:52:00,34.4,30.6,30.22,South,181,1.0,4.0,86,0.00,,OVC009,0.00,VWS V14.00,2013-03-11 06:52:00,
2013-03-11 02:57:00,34.4,30.9,30.22,SSE,150,1.0,4.0,87,0.00,,OVC009,0.00,VWS V14.00,2013-03-11 06:57:00,
2013-03-11 03:02:00,34.4,30.9,30.21,SSE,153,0.0,3.0,87,0.00,,OVC009,0.00,VWS V14.00,2013-03-11 07:02:00,
2013-03-11 03:07:00,34.4,30.9,30.21,SSE,153,5.0,5.0,87,0.00,,OVC009,0.00,VWS V14.00,2013-03-11 07:07:00,
2013-03-11 03:12:00,34.3,30.8,30.21,South,183,0.0,3.0,87,0.00,,OVC009,0.00,VWS V14.00,2013-03-11 07:12:00,
2013-03-11 03:17:00,34.3,30.8,30.20,SE,134,0.0,2.0,87,0.00,,OVC009,0.00,VWS V14.00,2013-03-11 07:17:00,
2013-03-11 03:22:00,34.3,30.8,30.20,SSE,154,1.0,2.0,87,0.00,,OVC009,0.00,VWS V14.00,2013-03-11 07:22:00,
2013-03-11 03:27:00,34.3,30.8,30.20,SE,136,0.0,1.0,87,0.00,,OVC009,0.00,VWS V14.00,2013-03-11 07:27:00,
2013-03-11 03:32:00,34.3,30.8,30.20,SE,132,1.0,4.0,87,0.00,,OVC009,0.00,VWS V14.00,2013-03-11 07:32:00,
2013-03-11 03:37:00,34.3,30.8,30.20,SE,130,2.0,4.0,87,0.00,,OVC009,0.00,VWS V14.00,2013-03-11 07:37:00,
2013-03-11 03:42:00,34.3,30.8,30.20,SSE,151,1.0,3.0,87,0.00,,OVC009,0.00,VWS V14.00,2013-03-11 07:42:00,
2013-03-11 03:47:00,34.3,30.8,30.19,East,82,3.0,4.0,87,0.00,,OVC009,0.00,VWS V14.00,2013-03-11 07:47:00,
2013-03-11 03:53:00,34.3,30.8,30.19,SSE,148,0.0,4.0,87,0.00,,OVC009,0.00,VWS V14.00,2013-03-11 07:53:00,
2013-03-11 03:58:00,34.3,30.8,30.19,SE,129,0.0,0.0,87,0.00,,OVC009,0.00,VWS V14.00,2013-03-11 07:58:00,
2013-03-11 04:03:00,34.3,30.8,30.19,SE,144,1.0,3.0,87,0.00,,OVC009,0.00,VWS V14.00,2013-03-11 08:03:00,
2013-03-11 04:08:00,34.3,30.8,30.19,SE,136,0.0,4.0,87,0.00,,OVC009,0.00,VWS V14.00,2013-03-11 08:08:00,
2013-03-11 04:13:00,34.4,30.9,30.19,SSE,148,1.0,1.0,87,0.00,,OVC009,0.00,VWS V14.00,2013-03-11 08:13:00,
2013-03-11 04:18:00,34.4,31.2,30.20,SW,232,0.0,1.0,88,0.00,,OVC009,0.00,VWS V14.00,2013-03-11 08:18:00,
2013-03-11 04:23:00,34.4,31.2,30.20,South,171,0.0,2.0,88,0.00,,OVC009,0.00,VWS V14.00,2013-03-11 08:23:00,
2013-03-11 04:28:00,34.4,31.2,30.20,SE,130,0.0,0.0,88,0.00,,OVC009,0.00,VWS V14.00,2013-03-11 08:28:00,
2013-03-11 04:33:00,34.4,31.2,30.18,SW,221,1.0,2.0,88,0.00,,OVC007,0.00,VWS V14.00,2013-03-11 08:33:00,
2013-03-11 04:38:00,34.6,31.4,30.18,SSW,211,0.0,1.0,88,0.00,,OVC007,0.00,VWS V14.00,2013-03-11 08:38:00,
2013-03-11 04:43:00,34.7,31.5,30.18,SSW,211,0.0,1.0,88,0.00,,OVC007,0.00,VWS V14.00,2013-03-11 08:43:00,
2013-03-11 04:48:00,34.7,31.5,30.19,SSE,162,0.0,2.0,88,0.00,,OVC007,0.00,VWS V14.00,2013-03-11 08:48:00,
2013-03-11 04:53:00,34.7,31.5,30.19,SSE,162,0.0,0.0,88,0.00,,OVC007,0.00,VWS V14.00,2013-03-11 08:53:00,
2013-03-11 04:58:00,34.9,31.7,30.19,SSE,162,0.0,0.0,88,0.00,,OVC007,0.00,VWS V14.00,2013-03-11 08:58:00,
2013-03-11 05:03:00,34.9,31.7,30.19,SE,130,0.0,0.0,88,0.00,,OVC007,0.00,VWS V14.00,2013-03-11 09:03:00,
2013-03-11 05:08:00,34.9,32.0,30.19,SE,128,4.0,4.0,89,0.00,,OVC007,0.00,VWS V14.00,2013-03-11 09:08:00,
2013-03-11 05:13:00,35.0,32.1,30.19,SE,132,0.0,1.0,89,0.00,,OVC007,0.00,VWS V14.00,2013-03-11 09:13:00,
2013-03-11 05:18:00,35.0,32.1,30.19,ESE,121,2.0,2.0,89,0.00,,OVC007,0.00,VWS V14.00,2013-03-11 09:18:00,
2013-03-11 05:23:00,35.2,32.3,30.19,SE,138,1.0,2.0,89,0.00,,OVC007,0.00,VWS V14.00,2013-03-11 09:23:00,
2013-03-11 05:28:00,35.2,32.3,30.19,SE,140,3.0,4.0,89,0.00,,OVC007,0.00,VWS V14.00,2013-03-11 09:28:00,
2013-03-11 05:33:00,35.3,32.4,30.18,ENE,76,0.0,2.0,89,0.00,,,0.00,VWS V14.00,2013-03-11 09:33:00,
2013-03-11 05:38:00,35.5,32.6,30.18,SSE,160,0.0,2.0,89,0.00,,,0.00,VWS V14.00,2013-03-11 09:38:00,
2013-03-11 05:43:00,35.6,33.0,30.18,East,90,2.0,3.0,90,0.00,,,0.00,VWS V14.00,2013-03-11 09:43:00,
2013-03-11 05:48:00,35.8,33.2,30.18,South,173,2.0,3.0,90,0.00,,,0.00,VWS V14.00,2013-03-11 09:48:00,
2013-03-11 05:53:00,35.9,33.3,30.18,SE,143,2.0,4.0,90,0.00,,,0.00,VWS V14.00,2013-03-11 09:53:00,
2013-03-11 05:58:00,36.0,33.4,30.18,SSE,155,0.0,4.0,90,0.00,,,0.00,VWS V14.00,2013-03-11 09:58:00,
2013-03-11 06:03:00,36.0,33.4,30.18,SSE,164,1.0,2.0,90,0.00,,,0.00,VWS V14.00,2013-03-11 10:03:00,
2013-03-11 06:08:00,36.0,33.4,30.18,SE,136,1.0,3.0,90,0.00,,,0.00,VWS V14.00,2013-03-11 10:08:00,
2013-03-11 06:13:00,36.0,33.4,30.18,ESE,105,1.0,2.0,90,0.00,,,0.00,VWS V14.00,2013-03-11 10:13:00,
2013-03-11 06:19:00,36.0,33.6,30.18,SE,136,2.0,6.0,91,0.00,,,0.00,VWS V14.00,2013-03-11 10:19:00,
2013-03-11 06:24:00,36.0,33.6,30.18,East,80,4.0,5.0,91,0.00,,,0.00,VWS V14.00,2013-03-11 10:24:00,
2013-03-11 06:29:00,36.2,33.8,30.18,SSW,201,2.0,4.0,91,0.00,,,0.00,VWS V14.00,2013-03-11 10:29:00,
2013-03-11 06:34:00,36.2,33.8,30.18,SSE,148,1.0,6.0,91,0.00,,,0.00,VWS V14.00,2013-03-11 10:34:00,
2013-03-11 06:39:00,36.3,33.9,30.18,SE,132,2.0,5.0,91,0.00,,,0.00,VWS V14.00,2013-03-11 10:39:00,
2013-03-11 06:44:00,36.5,34.1,30.18,SE,128,2.0,4.0,91,0.00,,,0.00,VWS V14.00,2013-03-11 10:44:00,
2013-03-11 06:49:00,36.5,34.1,30.18,ESE,123,1.0,2.0,91,0.00,,,0.00,VWS V14.00,2013-03-11 10:49:00,
2013-03-11 06:54:00,36.5,34.1,30.18,SE,146,2.0,4.0,91,0.00,,,0.00,VWS V14.00,2013-03-11 10:54:00,
2013-03-11 06:59:00,36.5,34.4,30.18,South,178,2.0,2.0,92,0.00,,,0.00,VWS V14.00,2013-03-11 10:59:00,
2013-03-11 07:04:00,36.5,34.1,30.18,SSE,165,0.0,0.0,91,0.00,,,0.00,VWS V14.00,2013-03-11 11:04:00,
2013-03-11 07:09:00,36.5,34.4,30.18,ESE,109,5.0,5.0,92,0.00,,,0.00,VWS V14.00,2013-03-11 11:09:00,
2013-03-11 07:14:00,36.5,34.4,30.18,ESE,117,1.0,3.0,92,0.00,,,0.00,VWS V14.00,2013-03-11 11:14:00,
2013-03-11 07:19:00,36.5,34.4,30.17,SE,138,3.0,3.0,92,0.00,,,0.00,VWS V14.00,2013-03-11 11:19:00,
2013-03-11 07:24:00,36.5,34.4,30.17,SE,134,1.0,2.0,92,0.00,,,0.00,VWS V14.00,2013-03-11 11:24:00,
2013-03-11 07:29:00,36.5,34.4,30.17,SE,144,0.0,9.0,92,0.00,,,0.00,VWS V14.00,2013-03-11 11:29:00,
2013-03-11 07:34:00,36.5,34.4,30.18,SSE,159,3.0,3.0,92,0.00,,OVC013,0.00,VWS V14.00,2013-03-11 11:34:00,
2013-03-11 07:39:00,36.6,34.5,30.18,South,180,0.0,0.0,92,0.00,,OVC013,0.00,VWS V14.00,2013-03-11 11:39:00,
2013-03-11 07:44:00,36.8,34.7,30.18,SSW,205,1.0,6.0,92,0.00,,OVC013,0.00,VWS V14.00,2013-03-11 11:44:00,
2013-03-11 07:49:00,36.9,34.8,30.18,SSE,165,1.0,3.0,92,0.00,,OVC013,0.00,VWS V14.00,2013-03-11 11:49:00,
2013-03-11 07:54:00,37.0,34.9,30.18,SSE,155,0.0,6.0,92,0.00,,OVC013,0.00,VWS V14.00,2013-03-11 11:54:00,
2013-03-11 07:59:00,37.0,34.9,30.18,SE,140,0.0,1.0,92,0.00,,OVC013,0.00,VWS V14.00,2013-03-11 11:59:00,
2013-03-11 08:04:00,37.0,34.9,30.18,SE,140,2.0,5.0,92,0.00,,OVC013,0.00,VWS V14.00,2013-03-11 12:04:00,
2013-03-11 08:09:00,37.0,34.9,30.18,SSE,164,1.0,6.0,92,0.00,,OVC013,0.00,VWS V14.00,2013-03-11 12:09:00,
2013-03-11 08:14:00,37.2,35.1,30.18,SE,127,4.0,5.0,92,0.00,,OVC013,0.00,VWS V14.00,2013-03-11 12:14:00,
2013-03-11 08:19:00,37.3,35.2,30.18,SSE,163,5.0,5.0,92,0.00,,OVC013,0.00,VWS V14.00,2013-03-11 12:19:00,
2013-03-11 08:24:00,37.5,35.4,30.18,South,187,3.0,6.0,92,0.00,,OVC013,0.00,VWS V14.00,2013-03-11 12:24:00,
2013-03-11 08:29:00,37.6,35.5,30.18,ESE,110,1.0,5.0,92,0.00,,OVC013,0.00,VWS V14.00,2013-03-11 12:29:00,
2013-03-11 08:34:00,37.8,35.7,30.18,SE,144,2.0,6.0,92,0.00,,,0.00,VWS V14.00,2013-03-11 12:34:00,
2013-03-11 08:39:00,37.9,35.8,30.18,SE,140,0.0,2.0,92,0.00,,,0.00,VWS V14.00,2013-03-11 12:39:00,
2013-03-11 08:44:00,38.0,35.9,30.18,East,101,2.0,2.0,92,0.00,,,0.00,VWS V14.00,2013-03-11 12:44:00,
2013-03-11 08:49:00,38.2,36.1,30.18,SSE,167,1.0,3.0,92,0.00,,,0.00,VWS V14.00,2013-03-11 12:49:00,
2013-03-11 08:54:00,38.3,35.9,30.18,SSE,167,0.0,0.0,91,0.00,,,0.00,VWS V14.00,2013-03-11 12:54:00,
2013-03-11 08:59:00,38.3,35.9,30.18,SSE,165,0.0,1.0,91,0.00,,,0.00,VWS V14.00,2013-03-11 12:59:00,
2013-03-11 09:04:00,38.3,35.9,30.19,East,101,3.0,3.0,91,0.00,,,0.00,VWS V14.00,2013-03-11 13:04:00,
2013-03-11 09:09:00,38.3,35.9,30.19,East,86,0.0,3.0,91,0.00,,,0.00,VWS V14.00,2013-03-11 13:09:00,
2013-03-11 09:14:00,38.5,36.1,30.19,SE,127,0.0,2.0,91,0.00,,,0.00,VWS V14.00,2013-03-11 13:14:00,
2013-03-11 09:19:00,38.6,36.2,30.19,WSW,252,2.0,3.0,91,0.00,,,0.00,VWS V14.00,2013-03-11 13:19:00,
2013-03-11 09:24:00,38.8,36.4,30.19,SSE,148,1.0,1.0,91,0.00,,,0.00,VWS V14.00,2013-03-11 13:24:00,
2013-03-11 09:29:00,39.1,36.4,30.19,SSE,153,1.0,3.0,90,0.00,,,0.00,VWS V14.00,2013-03-11 13:29:00,
2013-03-11 09:34:00,39.2,36.5,30.19,SW,234,1.0,2.0,90,0.00,,,0.00,VWS V14.00,2013-03-11 13:34:00,
2013-03-11 09:39:00,39.3,36.6,30.19,SE,141,1.0,3.0,90,0.00,,,0.00,VWS V14.00,2013-03-11 13:39:00,
2013-03-11 09:44:00,39.5,36.5,30.19,SE,143,0.0,1.0,89,0.00,,,0.00,VWS V14.00,2013-03-11 13:44:00,
2013-03-11 09:49:00,39.8,36.8,30.19,SW,225,1.0,3.0,89,0.00,,,0.00,VWS V14.00,2013-03-11 13:49:00,
2013-03-11 09:54:00,39.9,36.9,30.19,SE,136,1.0,3.0,89,0.00,,,0.00,VWS V14.00,2013-03-11 13:54:00,
2013-03-11 09:59:00,40.2,37.2,30.19,SSE,149,2.0,4.0,89,0.00,,,0.00,VWS V14.00,2013-03-11 13:59:00,
2013-03-11 10:04:00,40.6,37.3,30.19,SW,219,1.0,2.0,88,0.00,,,0.00,VWS V14.00,2013-03-11 14:04:00,
2013-03-11 10:09:00,40.9,37.6,30.19,SE,134,4.0,4.0,88,0.00,,,0.00,VWS V14.00,2013-03-11 14:09:00,
2013-03-11 10:14:00,41.3,37.7,30.19,SSE,167,3.0,3.0,87,0.00,,,0.00,VWS V14.00,2013-03-11 14:14:00,
2013-03-11 10:19:00,41.3,37.4,30.19,SE,124,5.0,7.0,86,0.00,,,0.00,VWS V14.00,2013-03-11 14:19:00,
2013-03-11 10:24:00,41.6,37.4,30.19,SSE,157,0.0,7.0,85,0.00,,,0.00,VWS V14.00,2013-03-11 14:24:00,
2013-03-11 10:30:00,42.1,37.9,30.19,SSW,202,1.0,3.0,85,0.00,,,0.00,VWS V14.00,2013-03-11 14:30:00,
2013-03-11 10:35:00,42.2,37.7,30.19,SSE,160,0.0,4.0,84,0.00,,OVC019,0.00,VWS V14.00,2013-03-11 14:35:00,
2013-03-11 10:40:00,42.3,37.5,30.19,SE,141,3.0,9.0,83,0.00,,OVC019,0.00,VWS V14.00,2013-03-11 14:40:00,
2013-03-11 10:45:00,42.9,38.1,30.19,SSW,205,1.0,2.0,83,0.00,,OVC019,0.00,VWS V14.00,2013-03-11 14:45:00,
2013-03-11 10:50:00,43.8,38.4,30.19,SSE,148,7.0,7.0,81,0.00,,OVC019,0.00,VWS V14.00,2013-03-11 14:50:00,
2013-03-11 10:55:00,44.2,38.1,30.19,WSW,238,5.0,5.0,79,0.00,,OVC019,0.00,VWS V14.00,2013-03-11 14:55:00,
2013-03-11 11:00:00,44.3,37.9,30.18,SSW,213,1.0,4.0,78,0.00,,OVC019,0.00,VWS V14.00,2013-03-11 15:00:00,
2013-03-11 11:05:00,44.6,38.2,30.18,South,169,2.0,11.0,78,0.00,,OVC019,0.00,VWS V14.00,2013-03-11 15:05:00,
2013-03-11 11:10:00,44.9,38.1,30.18,WSW,240,1.0,4.0,77,0.00,,OVC019,0.00,VWS V14.00,2013-03-11 15:10:00,
2013-03-11 11:15:00,45.2,38.1,30.18,SSW,199,2.0,5.0,76,0.00,,OVC019,0.00,VWS V14.00,2013-03-11 15:15:00,
2013-03-11 11:20:00,45.4,38.0,30.18,WSW,245,1.0,6.0,75,0.00,,OVC019,0.00,VWS V14.00,2013-03-11 15:20:00,
2013-03-11 11:25:00,45.5,38.0,30.18,SW,224,2.0,3.0,75,0.00,,OVC019,0.00,VWS V14.00,2013-03-11 15:25:00,
2013-03-11 11:30:00,45.5,37.7,30.18,SW,224,11.0,11.0,74,0.00,,OVC019,0.00,VWS V14.00,2013-03-11 15:30:00,
2013-03-11 11:35:00,45.5,37.7,30.18,SSE,162,3.0,3.0,74,0.00,,OVC019,0.00,VWS V14.00,2013-03-11 15:35:00,
2013-03-11 11:40:00,45.5,37.7,30.18,South,178,5.0,5.0,74,0.00,,OVC019,0.00,VWS V14.00,2013-03-11 15:40:00,
2013-03-11 11:45:00,45.2,37.4,30.16,SSE,161,0.0,4.0,74,0.00,,OVC019,0.00,VWS V14.00,2013-03-11 15:45:00,
2013-03-11 11:50:00,45.4,37.6,30.16,South,187,2.0,6.0,74,0.00,,OVC019,0.00,VWS V14.00,2013-03-11 15:50:00,
2013-03-11 11:55:00,45.2,37.4,30.16,SSE,147,0.0,2.0,74,0.00,,OVC019,0.00,VWS V14.00,2013-03-11 15:55:00,
2013-03-11 12:00:00,45.5,37.7,30.16,South,181,2.0,4.0,74,0.00,,OVC019,0.00,VWS V14.00,2013-03-11 16:00:00,
2013-03-11 12:05:00,45.7,37.9,30.16,ESE,121,1.0,4.0,74,0.00,,OVC019,0.00,VWS V14.00,2013-03-11 16:05:00,
2013-03-11 12:10:00,46.0,38.2,30.16,SE,125,0.0,1.0,74,0.00,,OVC019,0.00,VWS V14.00,2013-03-11 16:10:00,
2013-03-11 12:15:00,46.4,38.6,30.15,SE,145,1.0,1.0,74,0.00,,OVC019,0.00,VWS V14.00,2013-03-11 16:15:00,
2013-03-11 12:20:00,46.4,38.2,30.15,South,178,3.0,6.0,73,0.00,,OVC019,0.00,VWS V14.00,2013-03-11 16:20:00,
2013-03-11 12:25:00,46.5,38.0,30.15,SSE,163,1.0,5.0,72,0.00,,OVC019,0.00,VWS V14.00,2013-03-11 16:25:00,
2013-03-11 12:30:00,46.8,38.3,30.16,SW,215,1.0,3.0,72,0.00,,OVC019,0.00,VWS V14.00,2013-03-11 16:30:00,
2013-03-11 12:35:00,47.0,38.1,30.16,South,175,4.0,5.0,71,0.00,,FEW019,0.00,VWS V14.00,2013-03-11 16:35:00,
2013-03-11 12:40:00,47.0,38.1,30.16,SW,229,1.0,3.0,71,0.00,,FEW019,0.00,VWS V14.00,2013-03-11 16:40:00,
2013-03-11 12:45:00,47.3,38.4,30.16,SW,232,3.0,3.0,71,0.00,,FEW019,0.00,VWS V14.00,2013-03-11 16:45:00,
2013-03-11 12:50:00,47.3,38.0,30.16,ESE,121,5.0,11.0,70,0.00,,FEW019,0.00,VWS V14.00,2013-03-11 16:50:00,
2013-03-11 12:55:00,47.3,38.0,30.16,WSW,248,2.0,2.0,70,0.00,,FEW019,0.00,VWS V14.00,2013-03-11 16:55:00,
2013-03-11 13:00:00,47.3,38.0,30.15,East,92,2.0,6.0,70,0.00,,FEW019,0.00,VWS V14.00,2013-03-11 17:00:00,
2013-03-11 13:05:00,47.3,38.0,30.15,SSE,147,4.0,6.0,70,0.00,,FEW019,0.00,VWS V14.00,2013-03-11 17:05:00,
2013-03-11 13:10:00,47.3,38.0,30.15,East,96,4.0,6.0,70,0.00,,FEW019,0.00,VWS V14.00,2013-03-11 17:10:00,
2013-03-11 13:15:00,47.3,38.0,30.15,SSW,205,1.0,2.0,70,0.00,,FEW019,0.00,VWS V14.00,2013-03-11 17:15:00,
2013-03-11 13:20:00,47.4,37.8,30.15,ESE,121,0.0,3.0,69,0.00,,FEW019,0.00,VWS V14.00,2013-03-11 17:20:00,
2013-03-11 13:25:00,47.6,38.0,30.15,SSE,147,1.0,3.0,69,0.00,,FEW019,0.00,VWS V14.00,2013-03-11 17:25:00,
2013-03-11 13:30:00,48.0,38.3,30.14,SSE,166,4.0,6.0,69,0.00,,FEW019,0.00,VWS V14.00,2013-03-11 17:30:00,
2013-03-11 13:35:00,48.2,38.2,30.14,SW,216,3.0,3.0,68,0.00,,BKN120,0.00,VWS V14.00,2013-03-11 17:35:00,
2013-03-11 13:40:00,48.5,38.1,30.14,SSE,159,0.0,3.0,67,0.00,,BKN120,0.00,VWS V14.00,2013-03-11 17:40:00,
2013-03-11 13:45:00,48.8,38.3,30.13,SSE,154,5.0,13.0,67,0.00,,BKN120,0.00,VWS V14.00,2013-03-11 17:45:00,
2013-03-11 13:51:00,48.9,37.7,30.13,SSE,159,1.0,6.0,65,0.00,,BKN120,0.00,VWS V14.00,2013-03-11 17:51:00,
2013-03-11 13:56:00,49.4,38.1,30.13,South,169,2.0,6.0,65,0.00,,BKN120,0.00,VWS V14.00,2013-03-11 17:56:00,
2013-03-11 14:01:00,49.6,37.9,30.12,SSE,150,3.0,4.0,64,0.00,,BKN120,0.00,VWS V14.00,2013-03-11 18:01:00,
2013-03-11 14:07:00,49.8,38.1,30.12,South,190,1.0,2.0,64,0.00,,BKN120,0.00,VWS V14.00,2013-03-11 18:07:00,
2013-03-11 14:12:00,49.8,37.7,30.12,SSE,153,0.0,9.0,63,0.00,,BKN120,0.00,VWS V14.00,2013-03-11 18:12:00,
2013-03-11 14:17:00,50.2,38.5,30.11,ESE,118,1.0,1.0,64,0.00,,BKN120,0.00,VWS V14.00,2013-03-11 18:17:00,
2013-03-11 14:22:00,50.8,38.3,30.11,SSE,150,2.0,3.0,62,0.00,,BKN120,0.00,VWS V14.00,2013-03-11 18:22:00,
2013-03-11 14:27:00,51.0,38.0,30.11,SE,144,5.0,9.0,61,0.00,,BKN120,0.00,VWS V14.00,2013-03-11 18:27:00,
2013-03-11 14:32:00,51.0,38.5,30.11,SSE,151,4.0,4.0,62,0.00,,CLR,0.00,VWS V14.00,2013-03-11 18:32:00,
2013-03-11 14:37:00,51.3,37.9,30.11,SSE,163,7.0,7.0,60,0.00,,CLR,0.00,VWS V14.00,2013-03-11 18:37:00,
2013-03-11 14:42:00,51.7,38.3,30.11,SSE,156,3.0,3.0,60,0.00,,CLR,0.00,VWS V14.00,2013-03-11 18:42:00,
2013-03-11 14:47:00,51.7,38.3,30.10,SE,138,1.0,3.0,60,0.00,,CLR,0.00,VWS V14.00,2013-03-11 18:47:00,
2013-03-11 14:52:00,51.9,38.5,30.10,SSE,161,0.0,4.0,60,0.00,,CLR,0.00,VWS V14.00,2013-03-11 18:52:00,
2013-03-11 14:57:00,52.0,38.1,30.10,SSE,151,1.0,3.0,59,0.00,,CLR,0.00,VWS V14.00,2013-03-11 18:57:00,
2013-03-11 15:02:00,52.5,39.0,30.10,WSW,242,1.0,2.0,60,0.00,,CLR,0.00,VWS V14.00,2013-03-11 19:02:00,
2013-03-11 15:07:00,52.8,38.5,30.10,SSE,153,1.0,5.0,58,0.00,,CLR,0.00,VWS V14.00,2013-03-11 19:07:00,
2013-03-11 15:12:00,52.5,38.2,30.10,SSE,152,3.0,3.0,58,0.00,,CLR,0.00,VWS V14.00,2013-03-11 19:12:00,
2013-03-11 15:17:00,52.5,38.2,30.10,SSE,155,2.0,4.0,58,0.00,,CLR,0.00,VWS V14.00,2013-03-11 19:17:00,
2013-03-11 15:22:00,52.5,37.7,30.10,SSW,205,3.0,3.0,57,0.00,,CLR,0.00,VWS V14.00,2013-03-11 19:22:00,
2013-03-11 15:27:00,52.5,38.2,30.10,SSE,149,5.0,5.0,58,0.00,,CLR,0.00,VWS V14.00,2013-03-11 19:27:00,
2013-03-11 15:32:00,52.5,37.7,30.10,South,180,9.0,11.0,57,0.00,,CLR,0.00,VWS V14.00,2013-03-11 19:32:00,
2013-03-11 15:37:00,52.2,37.4,30.10,South,175,4.0,9.0,57,0.00,,CLR,0.00,VWS V14.00,2013-03-11 19:37:00,
2013-03-11 15:42:00,52.2,37.4,30.10,South,178,1.0,10.0,57,0.00,,CLR,0.00,VWS V14.00,2013-03-11 19:42:00,
2013-03-11 15:48:00,52.3,38.0,30.09,SSE,154,1.0,10.0,58,0.00,,CLR,0.00,VWS V14.00,2013-03-11 19:48:00,
2013-03-11 15:53:00,52.3,37.5,30.09,South,178,2.0,3.0,57,0.00,,CLR,0.00,VWS V14.00,2013-03-11 19:53:00,
2013-03-11 15:58:00,52.3,38.0,30.09,SW,225,1.0,5.0,58,0.00,,CLR,0.00,VWS V14.00,2013-03-11 19:58:00,
2013-03-11 16:03:00,52.3,37.5,30.08,West,267,0.0,4.0,57,0.00,,CLR,0.00,VWS V14.00,2013-03-11 20:03:00,
2013-03-11 16:08:00,52.6,37.8,30.08,East,86,4.0,4.0,57,0.00,,CLR,0.00,VWS V14.00,2013-03-11 20:08:00,
2013-03-11 16:13:00,52.6,38.3,30.08,SE,137,6.0,7.0,58,0.00,,CLR,0.00,VWS V14.00,2013-03-11 20:13:00,
2013-03-11 16:18:00,52.5,38.2,30.08,SE,140,6.0,7.0,58,0.00,,CLR,0.00,VWS V14.00,2013-03-11 20:18:00,
2013-03-11 16:23:00,52.2,38.3,30.08,SE,144,5.0,6.0,59,0.00,,CLR,0.00,VWS V14.00,2013-03-11 20:23:00,
2013-03-11 16:28:00,52.0,38.1,30.08,East,101,3.0,5.0,59,0.00,,CLR,0.00,VWS V14.00,2013-03-11 20:28:00,
2013-03-11 16:33:00,51.7,38.3,30.08,SE,134,1.0,4.0,60,0.00,,CLR,0.00,VWS V14.00,2013-03-11 20:33:00,
2013-03-11 16:38:00,51.3,37.9,30.08,SE,132,0.0,3.0,60,0.00,,CLR,0.00,VWS V14.00,2013-03-11 20:38:00,
2013-03-11 16:43:00,51.1,38.5,30.08,SSE,158,4.0,9.0,62,0.00,,CLR,0.00,VWS V14.00,2013-03-11 20:43:00,
2013-03-11 16:48:00,51.0,38.9,30.08,ESE,102,4.0,6.0,63,0.00,,CLR,0.00,VWS V14.00,2013-03-11 20:48:00,
2013-03-11 16:53:00,50.7,38.6,30.08,SE,128,2.0,10.0,63,0.00,,CLR,0.00,VWS V14.00,2013-03-11 20:53:00,
2013-03-11 16:58:00,50.4,38.7,30.08,East,82,3.0,11.0,64,0.00,,CLR,0.00,VWS V14.00,2013-03-11 20:58:00,
2013-03-11 17:03:00,50.1,38.8,30.07,SSE,153,0.0,5.0,65,0.00,,CLR,0.00,VWS V14.00,2013-03-11 21:03:00,
2013-03-11 17:08:00,49.9,39.0,30.07,SE,130,3.0,10.0,66,0.00,,CLR,0.00,VWS V14.00,2013-03-11 21:08:00,
2013-03-11 17:13:00,49.8,39.3,30.07,ESE,103,2.0,5.0,67,0.00,,CLR,0.00,VWS V14.00,2013-03-11 21:13:00,
2013-03-11 17:18:00,49.5,39.0,30.07,SSE,147,1.0,6.0,67,0.00,,CLR,0.00,VWS V14.00,2013-03-11 21:18:00,
2013-03-11 17:23:00,49.4,39.3,30.07,NE,44,4.0,6.0,68,0.00,,CLR,0.00,VWS V14.00,2013-03-11 21:23:00,
2013-03-11 17:28:00,49.1,39.4,30.07,SE,136,1.0,3.0,69,0.00,,CLR,0.00,VWS V14.00,2013-03-11 21:28:00,
2013-03-11 17:33:00,48.9,39.2,30.07,SSE,156,4.0,5.0,69,0.00,,CLR,0.00,VWS V14.00,2013-03-11 21:33:00,
2013-03-11 17:38:00,48.6,39.3,30.07,ESE,119,3.0,10.0,70,0.00,,CLR,0.00,VWS V14.00,2013-03-11 21:38:00,
2013-03-11 17:43:00,48.5,39.2,30.07,SE,130,4.0,5.0,70,0.00,,CLR,0.00,VWS V14.00,2013-03-11 21:43:00,
2013-03-11 17:48:00,48.3,39.0,30.07,SE,146,1.0,5.0,70,0.00,,CLR,0.00,VWS V14.00,2013-03-11 21:48:00,
2013-03-11 17:53:00,48.2,39.2,30.07,SSE,159,9.0,10.0,71,0.00,,CLR,0.00,VWS V14.00,2013-03-11 21:53:00,
2013-03-11 17:58:00,48.0,39.1,30.07,SE,130,2.0,5.0,71,0.00,,CLR,0.00,VWS V14.00,2013-03-11 21:58:00,
2013-03-11 18:03:00,47.9,39.0,30.08,SE,126,2.0,5.0,71,0.00,,CLR,0.00,VWS V14.00,2013-03-11 22:03:00,
2013-03-11 18:08:00,47.7,39.1,30.08,SE,144,3.0,5.0,72,0.00,,CLR,0.00,VWS V14.00,2013-03-11 22:08:00,
2013-03-11 18:13:00,47.7,39.1,30.08,SE,138,8.0,8.0,72,0.00,,CLR,0.00,VWS V14.00,2013-03-11 22:13:00,
2013-03-11 18:18:00,47.6,39.4,30.08,South,176,1.0,4.0,73,0.00,,CLR,0.00,VWS V14.00,2013-03-11 22:18:00,
2013-03-11 18:23:00,47.6,39.4,30.08,South,175,1.0,4.0,73,0.00,,CLR,0.00,VWS V14.00,2013-03-11 22:23:00,
2013-03-11 18:28:00,47.4,39.5,30.08,SE,132,1.0,2.0,74,0.00,,CLR,0.00,VWS V14.00,2013-03-11 22:28:00,
2013-03-11 18:33:00,47.4,39.5,30.08,ESE,117,5.0,7.0,74,0.00,,CLR,0.00,VWS V14.00,2013-03-11 22:33:00,
2013-03-11 18:38:00,47.4,39.9,30.08,ESE,112,5.0,5.0,75,0.00,,CLR,0.00,VWS V14.00,2013-03-11 22:38:00,
2013-03-11 18:43:00,47.3,39.8,30.08,SSE,163,3.0,5.0,75,0.00,,CLR,0.00,VWS V14.00,2013-03-11 22:43:00,
2013-03-11 18:48:00,47.3,40.1,30.08,South,171,6.0,7.0,76,0.00,,CLR,0.00,VWS V14.00,2013-03-11 22:48:00,
2013-03-11 18:53:00,47.1,39.9,30.08,SE,136,2.0,2.0,76,0.00,,CLR,0.00,VWS V14.00,2013-03-11 22:53:00,
2013-03-11 18:58:00,47.0,40.2,30.08,SE,127,5.0,7.0,77,0.00,,CLR,0.00,VWS V14.00,2013-03-11 22:58:00,
2013-03-11 19:03:00,47.0,40.2,30.07,SSE,149,2.0,7.0,77,0.00,,BKN021,0.00,VWS V14.00,2013-03-11 23:03:00,
2013-03-11 19:08:00,46.8,40.0,30.07,SE,146,9.0,12.0,77,0.00,,BKN021,0.00,VWS V14.00,2013-03-11 23:08:00,
2013-03-11 19:13:00,46.8,40.0,30.07,SSE,149,3.0,4.0,77,0.00,,BKN021,0.00,VWS V14.00,2013-03-11 23:13:00,
2013-03-11 19:19:00,46.7,40.2,30.07,ESE,106,2.0,7.0,78,0.00,,CLR,0.00,VWS V14.00,2013-03-11 23:19:00,
2013-03-11 19:24:00,46.5,40.0,30.07,SE,136,3.0,7.0,78,0.00,,CLR,0.00,VWS V14.00,2013-03-11 23:24:00,
2013-03-11 19:29:00,46.5,40.0,30.07,East,96,3.0,9.0,78,0.00,,CLR,0.00,VWS V14.00,2013-03-11 23:29:00,
2013-03-11 19:34:00,46.5,40.3,30.07,ESE,118,4.0,10.0,79,0.00,,BKN021,0.00,VWS V14.00,2013-03-11 23:34:00,
2013-03-11 19:39:00,46.4,40.2,30.07,SE,145,0.0,11.0,79,0.00,,BKN021,0.00,VWS V14.00,2013-03-11 23:39:00,
2013-03-11 19:44:00,46.4,40.6,30.07,SE,138,4.0,8.0,80,0.00,,BKN021,0.00,VWS V14.00,2013-03-11 23:44:00,
2013-03-11 19:49:00,46.4,40.6,30.07,SSE,157,2.0,5.0,80,0.00,,BKN021,0.00,VWS V14.00,2013-03-11 23:49:00,
2013-03-11 19:54:00,46.4,40.6,30.07,SE,140,2.0,5.0,80,0.00,,BKN021,0.00,VWS V14.00,2013-03-11 23:54:00,
2013-03-11 19:59:00,46.4,40.9,30.07,SSE,164,2.0,7.0,81,0.00,,BKN021,0.00,VWS V14.00,2013-03-11 23:59:00,
2013-03-11 20:04:00,46.4,40.9,30.07,SSE,152,2.0,6.0,81,0.00,,BKN021,0.00,VWS V14.00,2013-03-12 00:04:00,
2013-03-11 20:09:00,46.4,40.9,30.07,SSE,163,2.0,5.0,81,0.00,,BKN021,0.00,VWS V14.00,2013-03-12 00:09:00,
2013-03-11 20:14:00,46.2,40.7,30.07,SE,141,2.0,4.0,81,0.00,,BKN021,0.00,VWS V14.00,2013-03-12 00:14:00,
2013-03-11 20:19:00,46.2,41.0,30.07,East,90,1.0,3.0,82,0.00,,BKN023,0.00,VWS V14.00,2013-03-12 00:19:00,
2013-03-11 20:24:00,46.2,41.0,30.07,ESE,123,2.0,7.0,82,0.00,,BKN023,0.00,VWS V14.00,2013-03-12 00:24:00,
2013-03-11 20:29:00,46.4,41.2,30.07,SSE,150,1.0,11.0,82,0.00,,BKN023,0.00,VWS V14.00,2013-03-12 00:29:00,
2013-03-11 20:34:00,46.4,41.2,30.07,ESE,119,0.0,2.0,82,0.00,,BKN023,0.00,VWS V14.00,2013-03-12 00:34:00,
2013-03-11 20:39:00,46.4,41.2,30.07,East,96,4.0,5.0,82,0.00,,BKN023,0.00,VWS V14.00,2013-03-12 00:39:00,
2013-03-11 20:44:00,46.4,41.5,30.07,East,92,2.0,2.0,83,0.00,,BKN023,0.00,VWS V14.00,2013-03-12 00:44:00,
2013-03-11 20:49:00,46.4,41.5,30.08,ESE,109,3.0,9.0,83,0.00,,BKN023,0.00,VWS V14.00,2013-03-12 00:49:00,
2013-03-11 20:54:00,46.4,41.5,30.08,ESE,123,3.0,5.0,83,0.00,,BKN023,0.00,VWS V14.00,2013-03-12 00:54:00,
2013-03-11 20:59:00,46.4,41.5,30.08,SE,144,3.0,7.0,83,0.00,,BKN023,0.00,VWS V14.00,2013-03-12 00:59:00,
2013-03-11 21:04:00,46.4,41.5,30.08,SE,146,1.0,2.0,83,0.00,,BKN021,0.00,VWS V14.00,2013-03-12 01:04:00,
2013-03-11 21:09:00,46.4,41.5,30.08,SE,125,4.0,5.0,83,0.00,,BKN021,0.00,VWS V14.00,2013-03-12 01:09:00,
2013-03-11 21:14:00,46.4,41.8,30.08,ESE,123,2.0,10.0,84,0.00,,BKN021,0.00,VWS V14.00,2013-03-12 01:14:00,
2013-03-11 21:19:00,46.2,41.6,30.07,SE,124,11.0,11.0,84,0.00,,BKN023,0.00,VWS V14.00,2013-03-12 01:19:00,
2013-03-11 21:24:00,46.4,41.8,30.07,SE,144,1.0,4.0,84,0.00,,BKN023,0.00,VWS V14.00,2013-03-12 01:24:00,
2013-03-11 21:29:00,46.2,41.6,30.07,SE,138,3.0,6.0,84,0.00,,BKN023,0.00,VWS V14.00,2013-03-12 01:29:00,
2013-03-11 21:34:00,46.4,41.8,30.07,East,89,2.0,10.0,84,0.00,,BKN021,0.00,VWS V14.00,2013-03-12 01:34:00,
2013-03-11 21:39:00,46.2,42.0,30.07,SE,141,3.0,5.0,85,0.00,,BKN021,0.00,VWS V14.00,2013-03-12 01:39:00,
2013-03-11 21:44:00,46.2,42.0,30.07,East,100,4.0,7.0,85,0.00,,BKN021,0.00,VWS V14.00,2013-03-12 01:44:00,
2013-03-11 21:49:00,46.2,42.0,30.05,East,91,3.0,5.0,85,0.00,,BKN021,0.00,VWS V14.00,2013-03-12 01:49:00,
2013-03-11 21:54:00,46.2,42.0,30.05,ESE,106,3.0,5.0,85,0.00,,BKN021,0.00,VWS V14.00,2013-03-12 01:54:00,
2013-03-11 21:59:00,46.2,42.0,30.05,SE,146,3.0,3.0,85,0.00,,BKN021,0.00,VWS V14.00,2013-03-12 01:59:00,
2013-03-11 22:04:00,46.1,42.2,30.05,ESE,102,4.0,9.0,86,0.00,,BKN021,0.00,VWS V14.00,2013-03-12 02:04:00,
2013-03-11 22:09:00,46.1,42.2,30.05,SE,130,2.0,7.0,86,0.00,,BKN021,0.00,VWS V14.00,2013-03-12 02:09:00,
2013-03-11 22:14:00,46.1,42.2,30.05,East,96,2.0,7.0,86,0.00,,BKN021,0.00,VWS V14.00,2013-03-12 02:14:00,
2013-03-11 22:19:00,46.1,42.2,30.05,SE,132,3.0,5.0,86,0.00,,BKN021,0.00,VWS V14.00,2013-03-12 02:19:00,
2013-03-11 22:24:00,46.1,42.5,30.05,SSE,157,3.0,5.0,87,0.00,,BKN021,0.00,VWS V14.00,2013-03-12 02:24:00,
2013-03-11 22:29:00,46.1,42.5,30.05,East,82,4.0,7.0,87,0.00,,BKN021,0.00,VWS V14.00,2013-03-12 02:29:00,
2013-03-11 22:34:00,46.2,42.5,30.06,SSW,194,5.0,6.0,87,0.00,,OVC008,0.00,VWS V14.00,2013-03-12 02:34:00,
2013-03-11 22:39:00,46.2,42.8,30.06,NE,51,2.0,5.0,88,0.00,,OVC008,0.00,VWS V14.00,2013-03-12 02:39:00,
2013-03-11 22:44:00,46.2,42.8,30.06,ESE,121,4.0,8.0,88,0.00,,OVC008,0.00,VWS V14.00,2013-03-12 02:44:00,
2013-03-11 22:50:00,46.2,42.8,30.05,ESE,119,1.0,6.0,88,0.00,,OVC008,0.00,VWS V14.00,2013-03-12 02:50:00,
2013-03-11 22:55:00,46.2,42.8,30.05,SE,139,5.0,9.0,88,0.00,,OVC008,0.00,VWS V14.00,2013-03-12 02:55:00,
2013-03-11 23:00:00,46.2,43.1,30.05,East,86,5.0,6.0,89,0.00,,OVC008,0.00,VWS V14.00,2013-03-12 03:00:00,
2013-03-11 23:05:00,46.2,43.1,30.04,SE,138,3.0,7.0,89,0.00,,OVC008,0.00,VWS V14.00,2013-03-12 03:05:00,
2013-03-11 23:10:00,46.2,43.1,30.04,East,80,3.0,6.0,89,0.00,,OVC008,0.00,VWS V14.00,2013-03-12 03:10:00,
2013-03-11 23:15:00,46.2,43.1,30.04,SSE,163,9.0,12.0,89,0.00,,OVC008,0.00,VWS V14.00,2013-03-12 03:15:00,
2013-03-11 23:20:00,46.2,43.1,30.03,East,97,2.0,3.0,89,0.00,,OVC008,0.00,VWS V14.00,2013-03-12 03:20:00,
2013-03-11 23:25:00,46.2,43.1,30.03,SSE,160,6.0,6.0,89,0.00,,OVC008,0.00,VWS V14.00,2013-03-12 03:25:00,
2013-03-11 23:30:00,46.2,43.4,30.03,SE,139,3.0,4.0,90,0.00,,OVC008,0.00,VWS V14.00,2013-03-12 03:30:00,
2013-03-11 23:35:00,46.2,43.4,30.03,SE,132,4.0,6.0,90,0.00,,OVC006,0.00,VWS V14.00,2013-03-12 03:35:00,
2013-03-11 23:40:00,46.2,43.4,30.03,SE,124,5.0,5.0,90,0.00,,OVC006,0.00,VWS V14.00,2013-03-12 03:40:00,
2013-03-11 23:45:00,46.2,43.4,30.03,SE,131,5.0,5.0,90,0.00,,OVC006,0.00,VWS V14.00,2013-03-12 03:45:00,
2013-03-11 23:50:00,46.2,43.4,30.03,ESE,111,3.0,7.0,90,0.00,,OVC006,0.00,VWS V14.00,2013-03-12 03:50:00,
2013-03-11 23:55:00,46.4,43.6,30.03,SSE,151,4.0,5.0,90,0.00,,OVC006,0.00,VWS V14.00,2013-03-12 03:55:00,